Regional Weather Roundup
Issued by NWS

Home | Current Version | Previous Version | Graphics & Text | Print | Product List | Glossary On
Versions: 1 2 3 4 5 6 7 8 9 10 11 12 13 14 15 16 17 18 19 20 21 22 23 24 25 26 27 28 29 30 31 32 33 34 35 36 37 38 39 40 41 42 43 44 45 46 47 48 49 50
000
ASUS43 KLMK 202202
RWRKY
KENTUCKY REGIONAL WEATHER ROUNDUP
NATIONAL WEATHER SERVICE LOUISVILLE KY
600 PM EDT SUN APR 20 2014

NOTE "FAIR" INDICATES FEW OR NO CLOUDS BELOW 12,000 FEET
WITH NO SIGNIFICANT WEATHER AND/OR OBSTRUCTIONS TO VISIBILITY.

KYZ001>023-026-027-061>063-070>075-202300-
WESTERN AND SOUTH CENTRAL KENTUCKY

CITY           SKY/WX    TMP DP  RH WIND       PRES   REMARKS
PADUCAH        PTSUNNY   79  43  27 VRB5      30.10F
HENDERSON      SUNNY     73  39  29 CALM      30.11F
OWENSBORO      PTSUNNY   76  33  20 CALM      30.13F
HOPKINSVILLE   PTSUNNY   77  37  24 NE7       30.11F
BOWLING GREEN  CLOUDY    75  36  24 S3        30.13F
GLASGOW        NOT AVBL
$$

KYZ024-025-028>034-038-045-046-053-202300-
NORTH CENTRAL KENTUCKY

CITY           SKY/WX    TMP DP  RH WIND       PRES   REMARKS
LOUISVILLE/SDF PTSUNNY   77  42  28 N3        30.12S
LOUISVILLE/LOU PTSUNNY   78  37  22 CALM      30.12F
FORT KNOX      PTSUNNY   74  40  29 S6        30.12F
$$

KYZ035>037-039>044-047>052-055>060-089>105-202300-
NORTHEAST KENTUCKY

CITY           SKY/WX    TMP DP  RH WIND       PRES   REMARKS
LEXINGTON      MOSUNNY   75  40  28 CALM      30.14F
COVINGTON      PTSUNNY   75  33  21 SE6       30.14F
FRANKFORT      MOSUNNY   74  43  32 CALM      30.13F
$$

KYZ054-064>069-076>088-106>120-202300-
SOUTHEAST KENTUCKY

CITY           SKY/WX    TMP DP  RH WIND       PRES   REMARKS
JACKSON        SUNNY     78  26  14 W5        30.15F
LONDON         SUNNY     76  38  25 SW5       30.14F
SOMERSET       NOT AVBL
MIDDLESBORO    NOT AVBL
MONTICELLO     PTCLDY    79  40  24 N8        30.14F
$$




USA.gov is the U.S. government's official web portal to all federal, state and local government web resources and services.